Regional Weather Roundup
Issued by NWS

Home | Current Version | Previous Version | Graphics & Text | Print | Product List | Glossary On
Versions: 1 2 3 4 5 6 7 8 9 10 11 12 13 14 15 16 17 18 19 20 21 22 23 24 25 26 27 28 29 30 31 32 33 34 35 36 37 38 39 40 41 42 43 44 45 46 47 48 49 50
000
ASUS43 KLMK 281010
RWRKY
KENTUCKY REGIONAL WEATHER ROUNDUP
NATIONAL WEATHER SERVICE LOUISVILLE KY
600 AM EDT THU JUL 28 2016

NOTE "FAIR" INDICATES FEW OR NO CLOUDS BELOW 12,000 FEET
WITH NO SIGNIFICANT WEATHER AND/OR OBSTRUCTIONS TO VISIBILITY.

KYZ001>023-026-027-061>063-070>075-281100-
WESTERN AND SOUTH CENTRAL KENTUCKY

CITY           SKY/WX    TMP DP  RH WIND       PRES   REMARKS
PADUCAH        FOG       74  72  93 CALM      29.91R VSB 1
HENDERSON      NOT AVBL
OWENSBORO      CLOUDY    73  73 100 CALM      29.91F
HOPKINSVILLE   DRIZZLE   72  72  99 SE5       29.92R
BOWLING GREEN  LGT RAIN  74  72  93 W5        29.92S
GLASGOW        CLOUDY    74  74 100 N3        29.92F
$$

KYZ024-025-028>034-038-045-046-053-281100-
NORTH CENTRAL KENTUCKY

CITY           SKY/WX    TMP DP  RH WIND       PRES   REMARKS
LOUISVILLE/SDF CLOUDY    76  73  91 SW5       29.91R
LOUISVILLE/LOU LGT RAIN  74  72  93 SW3       29.92R
FORT KNOX      CLOUDY    73  72  98 W2        29.91R
$$

KYZ035>037-039>044-047>052-055>060-089>105-281100-
NORTHEAST KENTUCKY

CITY           SKY/WX    TMP DP  RH WIND       PRES   REMARKS
LEXINGTON      LGT RAIN  72  69  90 E3        29.93F
COVINGTON      TSTM      73  73 100 S5        29.92F FOG
FRANKFORT      LGT RAIN  72  69  90 SE8       29.91F
$$

KYZ054-064>069-076>088-106>120-281100-
SOUTHEAST KENTUCKY

CITY           SKY/WX    TMP DP  RH WIND       PRES   REMARKS
JACKSON        MOCLDY    69  67  93 CALM      29.97S
LONDON         MOCLDY    71  67  87 CALM      29.97S
SOMERSET       CLOUDY    70  70 100 CALM      29.97R
MIDDLESBORO    MOCLDY    70  70 100 CALM      30.00S
MONTICELLO     CLOUDY   N/A N/A N/A NE8       29.97S
$$




USA.gov is the U.S. government's official web portal to all federal, state and local government web resources and services.